CZ-4 DEB, 27806

Orbit data source: Space-Track

CZ-4 DEB, 27806 is space debris in SSO originally from a launch on Thu, 14 Oct 1999 UTC launched from the Taiyaun Space Center, China (TSC). Debris objects in space refer to the collection of defunct objects orbiting the Earth. Examples of debris include non-operational satellites, rocket bodies, and fragments generated from explosions, collisions, or faulty payload assembly.

Loading next visibility...
Identifier
27806, 1999-057MW
Orbit
SSO
Country
Flag of CNCN / PRC
Related business
Manufacturer
Unknown
Mission
Spacecraft
Bus & Motor
Unknown
Mass
Unknown
Launch date (UTC)
1999-10-14 (26 years ago)
Launch vehicle
Unknown
Launch site
Taiyaun Space Center, China (TSC)
Object type
Payload
Rocket body
Debris
Shape & HBR
Unknown shape, 0.1 m
Radar Cross Section
Small (<0.1 m²)

Expand to show TLE details & history
Last TLE update: 10 hours ago

TLE from 10 hours ago
0 CZ-4 DEB
1 27806U 99057MW  25293.78887882  .00000328  00000-0  13072-3 0  9999
2 27806  98.9171 314.4930 0109861  72.5339 288.7817 14.31973240248153
Epoch: 2025-10-20T18:55Z
TLE epoch observation values (Epoch: 2025-10-20T18:55:59.130Z)
Latitude
0.00002°
Longitude
1.01047°
Altitude
763.504 km
Speed
7.485 km/s
True Right ascension
20h 57m 58s
True Declination
0° 00' 00"
Sunlit
Object was in daylight at epoch
Visualization orbit readout
Latitude
Unknown
Longitude
Unknown
Altitude
Unknown
Speed
Unknown
Apparent Right ascension
Unknown
Apparent Declination
Unknown
Sunlit
N/A
Visualization observer readout
Local Sidereal Time
23:51:14
Azimuth
Unknown
Elevation
Unknown
Doppler factor
Unknown
Orbital elements
Apogee altitude
860.96 km
Perigee altitude
703.63 km
Semi-major axis
7,160.432 km
Eccentricity
0.01099
Inclination
98.9171°
RAAN
314.493°
Arg. of periapsis
72.5339°
True anomaly
287.58462°
Mean anomaly
288.7817°
Eccentric anomaly
288.18368°
Mean motion
3.58207 °/min
Orbital period
100.5 mins
BSTAR
0.00013072
Loading maneuver chart data...
Computing Atmospheric mass density...

Documentation

Showing up to 5 results
|